This is the latest recevied weather packets stored in our database for station/object WW3TRG. If no packets are shown the sender has not sent any weather packets the latest 10 day(s).
| Time | Temp. | Humidity | Pressure | Rain* | Wind** | Luminosity | Snow |
|---|---|---|---|---|---|---|---|
| 1778180516 | 17.78° C | 37% | 1007.9 hPa | 0 mm | - | 604 W/m² | - |
| 1778180214 | 17.78° C | 38% | 1007.6 hPa | 0 mm | - | 367 W/m² | - |
| 1778179911 | 16.67° C | 38% | 1007.7 hPa | 0 mm | - | 553 W/m² | - |
| 1778179609 | 17.78° C | 39% | 1007.7 hPa | 0 mm | - | 147 W/m² | - |
| 1778179307 | 18.33° C | 38% | 1007.9 hPa | 0 mm | - | 199 W/m² | - |
| 1778179002 | 17.78° C | 43% | 1008 hPa | 0 mm | - | 532 W/m² | - |
| 1778178700 | 17.78° C | 39% | 1007.9 hPa | 0 mm | - | 607 W/m² | - |
| 1778178397 | 17.78° C | 41% | 1008 hPa | 0 mm | - | 137 W/m² | - |
| 1778178092 | 17.78° C | 41% | 1008.1 hPa | 0 mm | - | 580 W/m² | - |
| 1778177789 | 17.78° C | 37% | 1008.2 hPa | 0 mm | - | 706 W/m² | - |
| 1778177485 | 17.78° C | 39% | 1008.2 hPa | 0 mm | - | 569 W/m² | - |
| 1778177181 | 17.22° C | 36% | 1008.2 hPa | 0 mm | - | 692 W/m² | - |
| 1778176879 | 16.67° C | 39% | 1008.2 hPa | 0 mm | - | 628 W/m² | - |
| 1778176574 | 16.67° C | 44% | 1008.3 hPa | 0 mm | - | 688 W/m² | - |
| 1778176272 | 16.67° C | 38% | 1008.3 hPa | 0 mm | - | 680 W/m² | - |
| 1778175969 | 16.67° C | 38% | 1008.4 hPa | 0 mm | - | 663 W/m² | - |
| 1778175667 | 17.78° C | 37% | 1008.6 hPa | 0 mm | - | 672 W/m² | - |
| 1778175364 | 17.22° C | 45% | 1008.5 hPa | 0 mm | - | 643 W/m² | - |
| 1778175061 | 16.67° C | 38% | 1008.7 hPa | 0 mm | - | 690 W/m² | - |
| 1778174756 | 16.67° C | 45% | 1008.9 hPa | 0 mm | - | 710 W/m² | - |
| 1778174454 | 15.56° C | 39% | 1008.7 hPa | 0 mm | - | 730 W/m² | - |
| 1778174149 | 15.56° C | 39% | 1009.2 hPa | 0 mm | - | 657 W/m² | - |
| 1778173847 | 16.11° C | 39% | 1009.2 hPa | 0 mm | - | 141 W/m² | - |
| 1778173543 | 16.11° C | 45% | 1009 hPa | 0 mm | - | 431 W/m² | - |
| 1778173240 | 16.11° C | 42% | 1009.3 hPa | 0 mm | - | 669 W/m² | - |
* Rain latest hour (hover to see other rain measurements)
** Current wind speed in m/s (hover to see current wind gust speed)